When you browse on this site, cookies collect data to enhance your experience and personalize the content and advertising you see.
Visit our Privacy Policy to learn more. By continuing to use the site, you agree to this use of cookies and data.
  • In United Kingdom
  • List of Countries
  • For 7 days
  • Water Temperature
  • Weather Map
  • Weather Widgets
  • user-avatar
    Login

    Hourly Weather Viedma

    Today, 7 June, Sunday

    Time Temperature Precipitation Wind Pressure Humidity
    00:00 +10°C° 0 mm 6 mps 756 mmHg 76%
    01:00 +10°C° 0 mm 6 mps 756 mmHg 75%
    02:00 +9°C° 0 mm 5 mps 756 mmHg 74%
    03:00 +9°C° 0 mm 5 mps 756 mmHg 71%
    04:00 +8°C° 0 mm 4 mps 756 mmHg 69%
    05:00 +8°C° 0 mm 4 mps 757 mmHg 66%
    06:00 +8°C° 0 mm 4 mps 757 mmHg 66%
    07:00 +9°C° 0 mm 3 mps 758 mmHg 66%
    08:00 +9°C° 0 mm 3 mps 758 mmHg 67%
    09:00 +10°C° 0 mm 3 mps 758 mmHg 60%
    10:00 +11°C° 0 mm 3 mps 758 mmHg 54%
    11:00 +13°C° 0 mm 3 mps 758 mmHg 48%
    12:00 +13°C° 0 mm 4 mps 758 mmHg 43%
    13:00 +14°C° 0 mm 5 mps 758 mmHg 38%
    14:00 +14°C° 0 mm 6 mps 757 mmHg 33%
    15:00 +13°C° 0 mm 5 mps 757 mmHg 34%
    16:00 +13°C° 0 mm 5 mps 757 mmHg 35%
    17:00 +12°C° 0 mm 5 mps 757 mmHg 36%
    18:00 +10°C° 0 mm 5 mps 758 mmHg 40%
    19:00 +10°C° 0 mm 4 mps 758 mmHg 43%
    20:00 +10°C° 0 mm 4 mps 758 mmHg 46%
    21:00 +10°C° 0 mm 4 mps 758 mmHg 47%
    22:00 +9°C° 0 mm 5 mps 757 mmHg 49%
    23:00 +8°C° 0 mm 5 mps 757 mmHg 50%

    Tomorrow, 8 June, Monday

    Time Temperature Precipitation Wind Pressure Humidity
    00:00 +8°C° 0 mm 5 mps 757 mmHg 52%
    01:00 +8°C° 0 mm 4 mps 757 mmHg 54%
    02:00 +8°C° 0 mm 4 mps 757 mmHg 56%
    03:00 +8°C° 0 mm 4 mps 757 mmHg 56%
    04:00 +7°C° 0 mm 4 mps 756 mmHg 56%
    05:00 +7°C° 0 mm 4 mps 756 mmHg 57%
    06:00 +7°C° 0 mm 4 mps 756 mmHg 58%
    07:00 +7°C° 0 mm 4 mps 756 mmHg 58%
    08:00 +7°C° 0 mm 4 mps 756 mmHg 59%
    09:00 +9°C° 0 mm 5 mps 756 mmHg 54%
    10:00 +11°C° 0 mm 6 mps 756 mmHg 48%
    11:00 +14°C° 0 mm 7 mps 756 mmHg 42%
    12:00 +15°C° 0 mm 8 mps 755 mmHg 39%
    13:00 +16°C° 0 mm 9 mps 755 mmHg 36%
    14:00 +17°C° 0 mm 10 mps 755 mmHg 33%
    15:00 +15°C° 0 mm 8 mps 755 mmHg 37%
    16:00 +14°C° 0 mm 7 mps 755 mmHg 42%
    17:00 +12°C° 0 mm 5 mps 755 mmHg 47%
    18:00 +11°C° 0 mm 4 mps 755 mmHg 53%
    19:00 +10°C° 0 mm 3 mps 756 mmHg 59%
    20:00 +9°C° 0 mm 2 mps 756 mmHg 64%
    21:00 +9°C° 0 mm 2 mps 756 mmHg 65%
    22:00 +9°C° 0 mm 1 mps 756 mmHg 65%
    23:00 +9°C° 0 mm 1 mps 756 mmHg 66%

    Day after tomorrow, 9 June, Tuesday

    Time Temperature Precipitation Wind Pressure Humidity
    00:00 +8°C° 0 mm 2 mps 756 mmHg 65%
    01:00 +8°C° 0 mm 3 mps 756 mmHg 64%
    02:00 +7°C° 0 mm 4 mps 756 mmHg 63%
    03:00 +7°C° 0 mm 5 mps 755 mmHg 61%
    04:00 +7°C° 0 mm 5 mps 755 mmHg 58%
    05:00 +7°C° 0 mm 6 mps 755 mmHg 55%
    06:00 +5°C° 0 mm 6 mps 755 mmHg 56%
    07:00 +6°C° 0 mm 5 mps 755 mmHg 57%
    08:00 +6°C° 0 mm 5 mps 755 mmHg 58%
    09:00 +8°C° 0 mm 6 mps 755 mmHg 51%
    10:00 +10°C° 0 mm 8 mps 755 mmHg 45%
    11:00 +12°C° 0 mm 10 mps 754 mmHg 38%
    12:00 +12°C° 0 mm 10 mps 754 mmHg 38%
    13:00 +13°C° 0 mm 11 mps 753 mmHg 38%
    14:00 +14°C° 0 mm 11 mps 752 mmHg 38%
    15:00 +13°C° 0 mm 10 mps 751 mmHg 41%
    16:00 +12°C° 0 mm 8 mps 751 mmHg 43%
    17:00 +11°C° 0 mm 7 mps 751 mmHg 46%
    18:00 +11°C° 0 mm 7 mps 750 mmHg 46%
    19:00 +11°C° 0 mm 7 mps 750 mmHg 47%
    20:00 +10°C° 0 mm 8 mps 750 mmHg 47%
    21:00 +10°C° 0 mm 8 mps 750 mmHg 45%
    22:00 +10°C° 0 mm 9 mps 750 mmHg 44%
    23:00 +10°C° 0 mm 9 mps 750 mmHg 43%

    10 June, Wednesday

    Time Temperature Precipitation Wind Pressure Humidity
    00:00 +10°C° 0 mm 9 mps 750 mmHg 45%
    01:00 +10°C° 0 mm 8 mps 750 mmHg 48%
    02:00 +9°C° 0 mm 8 mps 750 mmHg 50%
    03:00 +9°C° 0 mm 8 mps 750 mmHg 51%
    04:00 +9°C° 0 mm 8 mps 750 mmHg 53%
    05:00 +9°C° 0 mm 8 mps 750 mmHg 54%
    06:00 +9°C° 0 mm 8 mps 750 mmHg 56%
    07:00 +9°C° 0 mm 7 mps 750 mmHg 58%
    08:00 +9°C° 0 mm 6 mps 751 mmHg 60%
    09:00 +10°C° 0 mm 7 mps 751 mmHg 56%
    10:00 +12°C° 0 mm 8 mps 751 mmHg 53%
    11:00 +13°C° 0 mm 8 mps 752 mmHg 49%
    12:00 +15°C° 0 mm 9 mps 751 mmHg 47%
    13:00 +15°C° 0 mm 9 mps 751 mmHg 45%
    14:00 +16°C° 0 mm 9 mps 750 mmHg 44%
    15:00 +15°C° 0 mm 9 mps 750 mmHg 47%
    16:00 +13°C° 0 mm 8 mps 750 mmHg 49%
    17:00 +12°C° 0 mm 8 mps 750 mmHg 52%
    18:00 +12°C° 0 mm 7 mps 750 mmHg 51%
    19:00 +12°C° 0 mm 7 mps 750 mmHg 50%
    20:00 +13°C° 0 mm 6 mps 750 mmHg 49%
    21:00 +14°C° 0 mm 7 mps 750 mmHg 44%
    22:00 +13°C° 0 mm 8 mps 750 mmHg 38%
    23:00 +15°C° 0 mm 9 mps 749 mmHg 33%

    11 June, Thursday

    Time Temperature Precipitation Wind Pressure Humidity
    00:00 +13°C° 0 mm 9 mps 749 mmHg 35%
    01:00 +13°C° 0 mm 9 mps 749 mmHg 37%
    02:00 +12°C° 0 mm 9 mps 749 mmHg 40%
    03:00 +12°C° 0 mm 9 mps 749 mmHg 40%
    04:00 +12°C° 0 mm 9 mps 748 mmHg 41%
    05:00 +12°C° 0 mm 10 mps 748 mmHg 42%
    06:00 +12°C° 0 mm 9 mps 748 mmHg 42%
    07:00 +12°C° 0 mm 9 mps 748 mmHg 43%
    08:00 +11°C° 0 mm 9 mps 748 mmHg 44%
    09:00 +13°C° 0 mm 10 mps 748 mmHg 42%
    10:00 +16°C° 0 mm 10 mps 748 mmHg 40%
    11:00 +17°C° 0 mm 11 mps 748 mmHg 38%
    12:00 +18°C° 0 mm 11 mps 748 mmHg 36%
    13:00 +18°C° 0 mm 12 mps 747 mmHg 35%
    14:00 +19°C° 0 mm 12 mps 747 mmHg 33%
    15:00 +18°C° 0 mm 10 mps 747 mmHg 35%
    16:00 +17°C° 0 mm 8 mps 746 mmHg 37%
    17:00 +17°C° 0 mm 6 mps 746 mmHg 39%
    18:00 +16°C° 0 mm 7 mps 746 mmHg 37%
    19:00 +16°C° 0 mm 7 mps 746 mmHg 35%
    20:00 +16°C° 0 mm 8 mps 746 mmHg 32%
    21:00 +16°C° 0 mm 8 mps 746 mmHg 35%
    22:00 +15°C° 0 mm 8 mps 746 mmHg 39%
    23:00 +15°C° 0 mm 7 mps 746 mmHg 42%

    12 June, Friday

    Time Temperature Precipitation Wind Pressure Humidity
    00:00 +13°C° 0 mm 8 mps 747 mmHg 43%
    01:00 +13°C° 0 mm 8 mps 747 mmHg 44%
    02:00 +13°C° 0 mm 8 mps 748 mmHg 45%
    03:00 +12°C° 0 mm 7 mps 748 mmHg 46%
    04:00 +11°C° 0 mm 7 mps 748 mmHg 46%
    05:00 +10°C° 0 mm 6 mps 748 mmHg 46%
    06:00 +10°C° 0 mm 6 mps 749 mmHg 52%
    07:00 +9°C° 0 mm 7 mps 750 mmHg 57%
    08:00 +8°C° 0 mm 7 mps 751 mmHg 63%
    09:00 +8°C° 0 mm 7 mps 752 mmHg 63%
    10:00 +7°C° 0 mm 8 mps 753 mmHg 63%
    11:00 +7°C° 0 mm 8 mps 754 mmHg 63%
    12:00 +7°C° 0.1 mm 9 mps 754 mmHg 62%
    13:00 +7°C° 0.1 mm 9 mps 755 mmHg 62%
    14:00 +6°C° 0.1 mm 10 mps 756 mmHg 61%
    15:00 +6°C° 0 mm 9 mps 756 mmHg 60%
    16:00 +5°C° 0 mm 8 mps 757 mmHg 58%
    17:00 +5°C° 0 mm 7 mps 758 mmHg 57%
    18:00 +4°C° 0 mm 6 mps 759 mmHg 56%
    19:00 +4°C° 0 mm 6 mps 759 mmHg 55%
    20:00 +5°C° 0 mm 5 mps 760 mmHg 54%
    21:00 +3°C° 0 mm 5 mps 761 mmHg 55%
    22:00 +3°C° 0 mm 5 mps 761 mmHg 56%
    23:00 +3°C° 0 mm 6 mps 761 mmHg 57%
    Show more